GROUP/SHIP,CRUISE_DESIGNATION,JD_GMT,DATE_DDMMYYYY,TIME_HH:MM:SS,LAT_DEC_DEGREE,LONG_DEC_DEGREE,xCO2W_PPM,xCO2A_PPM,PRES_EQUIL_hPa,PRES_SEALEVEL_hPa,EqTEMP_C,SST(TSG)_C,SAL(TSG)_PERMIL,WATER_FLOW_L/MIN,GAS_FLOW_IR_ML/MIN,TEMP_IR_C,PRES_IR_hPa,SHIP_HEADING_TRUE_DEGREE,SHIP_SPEED_KNOT,WIND_DIR_REL_DEGREE,WIND_SPEED_REL_M/S,fCO2W@SST_uATM,QC_FLAG_WATER,fCO2A_uATM,QC_FLAG_AIR,dfCO2_uATM,FLUORO_uG/L,WIND_SPEED_TRUE_M/S,WIND_DIR_TRUE_DEGREE,AIR_TEMP_C
AOML_Brown,RB200303,69.973,10032003,23:20:48,18.591,-65.925,374.26,378.14,1012.81,1012.65,26.84,26.71,36.09,10.98,139.15,31.87,1012.81,-9,-9,19.90,13.49,358.48,2,364.10,2,-5.62,0.60,7.55,129.76,-9
AOML_Brown,RB200303,69.976,10032003,23:25:28,18.590,-65.908,371.27,378.14,1012.73,1013.02,26.89,26.75,36.13,11.12,134.06,32.08,1012.73,-9,-9,18.80,13.08,355.39,2,364.10,2,-8.71,0.62,7.25,136.64,-9
AOML_Brown,RB200303,69.979,10032003,23:29:48,18.587,-65.892,370.82,378.14,1012.92,1012.85,26.87,26.70,36.11,11.09,139.21,32.23,1012.92,-9,-9,10.60,13.68,354.69,2,364.10,2,-9.41,0.62,7.36,125.10,-9
AOML_Brown,RB200303,69.982,10032003,23:34:28,18.582,-65.875,369.82,378.14,1013.11,1013.20,26.82,26.68,36.12,11.27,136.13,32.33,1013.11,-9,-9,14.80,13.49,354.22,2,364.10,2,-9.87,0.61,7.36,134.11,-9
AOML_Brown,RB200303,69.994,10032003,23:50:48,18.566,-65.817,372.73,378.14,1013.18,1013.05,26.87,26.71,36.17,11.17,130.94,32.68,1013.18,-9,-9,13.40,14.48,356.82,2,364.10,2,-7.28,0.66,8.36,130.67,-9
AOML_Brown,RB200303,69.997,10032003,23:55:28,18.561,-65.801,371.90,378.14,1013.37,1013.27,26.86,26.69,36.16,11.19,131.72,32.74,1013.37,-9,-9,14.10,13.98,355.98,2,364.10,2,-8.12,0.65,7.62,132.63,-9
AOML_Brown,RB200303,70.000,10032003,23:59:48,18.557,-65.785,371.06,378.14,1013.28,1013.30,26.83,26.68,36.15,11.08,134.07,32.75,1013.28,-9,-9,18.20,14.58,355.34,2,364.10,2,-8.76,0.64,8.62,138.10,-9
AOML_Brown,RB200303,70.003,11032003,00:04:28,18.552,-65.768,370.65,378.14,1013.53,1013.06,26.83,26.68,36.15,11.05,134.54,32.78,1013.53,-9,-9,13.30,14.68,355.06,2,364.10,2,-9.04,0.64,8.56,137.25,-9
AOML_Brown,RB200303,70.014,11032003,00:20:48,18.536,-65.709,368.84,377.62,1013.68,1013.71,26.86,26.73,36.18,10.99,136.00,32.90,1013.68,-9,-9,15.30,13.78,353.55,2,364.00,2,-10.45,0.63,7.52,132.03,-9
AOML_Brown,RB200303,70.018,11032003,00:25:28,18.532,-65.693,369.68,377.62,1013.77,1013.78,26.86,26.72,36.17,11.23,136.11,32.91,1013.77,-9,-9,15.20,13.88,354.32,2,364.00,2,-9.68,0.63,7.58,136.47,-9
AOML_Brown,RB200303,70.020,11032003,00:29:28,18.528,-65.678,370.41,377.62,1013.94,1013.94,26.84,26.70,36.17,11.11,137.68,32.90,1013.94,-9,-9,22.90,13.49,355.12,2,364.00,2,-8.88,0.64,7.94,149.93,-9
AOML_Brown,RB200303,70.024,11032003,00:34:28,18.522,-65.660,371.89,377.62,1013.83,1013.85,26.85,26.71,36.16,10.91,137.06,32.90,1013.83,-9,-9,17.10,13.18,356.46,2,364.00,2,-7.54,0.64,7.24,139.66,-9
AOML_Brown,RB200303,70.035,11032003,00:50:48,18.507,-65.602,374.90,377.62,1014.32,1014.17,26.83,26.68,36.12,11.06,134.09,32.97,1014.32,-9,-9,22.40,13.28,359.48,2,364.00,2,-4.52,0.63,7.74,148.27,-9
AOML_Brown,RB200303,70.039,11032003,00:55:28,18.502,-65.586,374.81,377.62,1014.16,1014.27,26.81,26.67,36.11,11.13,135.51,32.96,1014.16,-9,-9,17.70,12.38,359.42,2,364.00,2,-4.58,0.64,6.51,142.91,-9
AOML_Brown,RB200303,70.042,11032003,00:59:48,18.498,-65.571,375.46,377.62,1014.36,1014.38,26.83,26.68,36.09,10.92,135.01,32.97,1014.36,-9,-9,18.50,12.99,360.02,2,364.00,2,-3.98,0.64,7.18,139.60,-9
AOML_Brown,RB200303,70.045,11032003,01:04:28,18.494,-65.554,376.47,377.62,1014.31,1014.49,26.86,26.76,36.06,11.48,134.88,32.97,1014.31,-9,-9,14.40,13.58,361.49,2,364.00,2,-2.51,0.64,7.67,130.75,-9
AOML_Brown,RB200303,70.056,11032003,01:20:48,18.478,-65.498,380.32,377.36,1014.44,1014.40,27.00,26.88,36.00,11.29,137.58,33.01,1014.44,-9,-9,16.90,13.38,364.99,2,363.84,2,1.16,0.67,7.47,138.50,-9
AOML_Brown,RB200303,70.059,11032003,01:25:28,18.473,-65.482,379.93,377.36,1014.53,1014.68,27.01,26.88,35.99,11.12,137.94,33.03,1014.53,-9,-9,13.20,13.08,364.43,2,363.84,2,0.60,0.67,7.07,132.09,-9
AOML_Brown,RB200303,70.062,11032003,01:29:48,18.469,-65.466,379.67,377.36,1014.59,1014.49,27.02,26.87,35.98,11.16,138.92,33.05,1014.59,-9,-9,8.80,13.08,363.98,2,363.84,2,0.14,0.67,6.85,124.39,-9
AOML_Brown,RB200303,70.066,11032003,01:34:28,18.465,-65.450,379.48,377.36,1014.49,1014.59,26.99,26.84,35.98,11.11,141.09,33.04,1014.49,-9,-9,7.20,13.08,363.72,2,363.84,2,-0.12,0.67,7.30,143.17,-9
AOML_Brown,RB200303,70.077,11032003,01:50:48,18.449,-65.393,381.64,377.36,1014.69,1014.57,27.00,26.85,35.97,11.15,133.64,33.23,1014.69,-9,-9,9.00,13.28,365.94,2,363.84,2,2.11,0.74,7.06,126.54,-9
AOML_Brown,RB200303,70.080,11032003,01:55:28,18.444,-65.377,381.42,377.36,1014.78,1014.84,26.98,26.84,35.96,11.19,139.56,33.25,1014.78,-9,-9,6.10,11.68,365.83,2,363.84,2,2.00,0.81,5.34,120.66,-9
AOML_Brown,RB200303,70.083,11032003,01:59:48,18.440,-65.361,380.93,377.36,1014.95,1014.90,26.98,26.85,35.95,11.05,137.43,33.26,1014.95,-9,-9,10.80,12.88,365.58,2,363.84,2,1.74,0.82,6.67,126.19,-9
AOML_Brown,RB200303,70.086,11032003,02:04:28,18.435,-65.345,380.71,377.36,1014.87,1014.93,27.00,26.87,35.96,11.18,138.92,33.27,1014.87,-9,-9,9.80,11.68,365.27,2,363.84,2,1.44,0.80,5.36,129.47,-9
AOML_Brown,RB200303,70.098,11032003,02:20:48,18.407,-65.292,384.30,377.32,1014.86,1014.88,26.98,26.83,36.03,11.17,139.14,33.31,1014.86,-9,-9,3.10,11.88,368.59,2,363.93,2,4.65,0.68,5.42,127.61,-9
AOML_Brown,RB200303,70.101,11032003,02:25:28,18.399,-65.277,385.73,377.32,1014.92,1014.99,26.96,26.80,36.05,10.99,140.99,33.31,1014.92,-9,-9,356.00,11.59,369.85,2,363.93,2,5.92,0.66,5.19,112.04,-9
AOML_Brown,RB200303,70.104,11032003,02:29:48,18.391,-65.263,386.95,377.32,1014.93,1014.95,26.97,26.85,36.12,11.04,140.62,33.32,1014.93,-9,-9,352.10,10.78,371.49,2,363.93,2,7.56,0.65,4.50,102.28,-9
AOML_Brown,RB200303,70.107,11032003,02:34:28,18.382,-65.249,388.47,377.32,1014.92,1014.93,26.98,26.81,36.13,11.26,141.29,33.31,1014.92,-9,-9,352.30,10.59,372.34,2,363.93,2,8.41,0.68,4.11,100.60,-9
AOML_Brown,RB200303,70.119,11032003,02:50:48,18.350,-65.201,387.06,377.32,1014.85,1014.74,26.92,26.79,35.97,11.29,135.19,33.33,1014.85,-9,-9,334.70,11.09,371.41,2,363.93,2,7.48,0.81,5.98,103.36,-9
AOML_Brown,RB200303,70.122,11032003,02:55:28,18.336,-65.194,386.32,377.32,1014.88,1014.88,26.94,26.81,35.96,11.09,136.18,33.35,1014.88,-9,-9,332.20,10.28,370.70,2,363.93,2,6.77,0.82,5.49,91.97,-9
AOML_Brown,RB200303,70.125,11032003,02:59:48,18.323,-65.187,385.58,377.32,1014.90,1014.99,26.96,26.82,35.94,10.88,136.88,33.34,1014.90,-9,-9,332.40,10.89,369.94,2,363.93,2,6.00,0.69,6.07,95.66,-9
AOML_Brown,RB200303,70.128,11032003,03:04:28,18.309,-65.179,385.51,377.32,1014.87,1014.87,26.96,26.82,35.93,11.00,138.39,33.34,1014.87,-9,-9,331.60,11.29,369.82,2,363.93,2,5.89,0.66,6.64,93.66,-9
AOML_Brown,RB200303,70.139,11032003,03:20:48,18.257,-65.156,382.70,377.01,1014.70,1014.77,26.96,26.81,35.93,11.11,137.86,33.37,1014.70,-9,-9,327.10,10.28,367.01,2,363.55,2,3.46,0.64,5.67,98.21,-9
AOML_Brown,RB200303,70.143,11032003,03:25:28,18.242,-65.150,381.56,377.01,1014.72,1014.62,26.96,26.83,35.94,11.27,140.59,33.36,1014.72,-9,-9,329.10,11.59,366.14,2,363.55,2,2.59,0.64,6.86,97.70,-9
AOML_Brown,RB200303,70.146,11032003,03:29:48,18.227,-65.144,378.96,377.01,1014.71,1014.76,26.97,26.82,35.94,11.01,139.59,33.36,1014.71,-9,-9,327.40,10.28,363.35,2,363.55,2,-0.20,0.64,6.21,85.82,-9
AOML_Brown,RB200303,70.149,11032003,03:34:28,18.212,-65.138,376.70,377.01,1014.70,1014.76,26.96,26.85,35.94,11.43,140.76,33.35,1014.70,-9,-9,335.60,11.48,361.74,2,363.55,2,-1.81,0.64,6.22,108.42,-9
AOML_Brown,RB200303,70.160,11032003,03:50:48,18.185,-65.089,372.52,377.01,1014.71,1014.75,26.97,26.82,35.93,11.37,138.18,33.37,1014.71,-9,-9,358.00,13.28,357.24,2,363.55,2,-6.31,0.62,6.61,103.77,-9
AOML_Brown,RB200303,70.164,11032003,03:55:28,18.180,-65.072,372.35,377.01,1014.78,1014.57,26.94,26.79,35.92,11.12,134.21,33.38,1014.78,-9,-9,1.00,12.29,357.07,2,363.55,2,-6.48,0.62,5.65,110.27,-9
AOML_Brown,RB200303,70.167,11032003,03:59:48,18.175,-65.057,372.11,377.01,1014.71,1014.64,26.92,26.77,35.92,10.91,138.89,33.38,1014.71,-9,-9,1.10,13.18,356.82,2,363.55,2,-6.73,0.62,6.40,110.77,-9
AOML_Brown,RB200303,70.170,11032003,04:04:28,18.170,-65.040,371.79,377.01,1014.67,1014.52,26.91,26.77,35.91,10.93,138.33,33.36,1014.67,-9,-9,2.70,12.29,356.70,2,363.55,2,-6.85,0.62,5.56,114.27,-9
AOML_Brown,RB200303,70.181,11032003,04:20:48,18.152,-64.982,371.33,377.09,1014.46,1014.44,26.91,26.77,35.91,11.34,140.33,33.39,1014.46,-9,-9,3.10,13.58,356.06,2,363.51,2,-7.45,0.62,6.91,113.70,-9
AOML_Brown,RB200303,70.184,11032003,04:25:28,18.146,-64.965,371.44,377.09,1014.51,1014.27,26.91,26.77,35.91,11.08,140.50,33.39,1014.51,-9,-9,359.00,13.78,356.25,2,363.51,2,-7.26,0.62,7.35,106.13,-9
AOML_Brown,RB200303,70.187,11032003,04:29:48,18.142,-64.949,371.42,377.09,1014.41,1014.24,26.91,26.76,35.91,11.30,142.35,33.38,1014.41,-9,-9,0.30,13.28,356.06,2,363.51,2,-7.45,0.62,6.70,108.39,-9
AOML_Brown,RB200303,70.191,11032003,04:34:28,18.136,-64.933,371.29,377.09,1014.38,1014.39,26.90,26.77,35.91,11.15,141.91,33.38,1014.38,-9,-9,358.20,13.49,356.18,2,363.51,2,-7.33,0.62,6.76,113.09,-9
AOML_Brown,RB200303,70.202,11032003,04:50:48,18.118,-64.874,371.20,377.09,1014.32,1014.30,26.93,26.80,35.93,11.06,135.49,33.38,1014.32,-9,-9,2.80,12.29,356.02,2,363.51,2,-7.48,0.61,5.75,106.92,-9
AOML_Brown,RB200303,70.205,11032003,04:55:28,18.113,-64.858,371.31,377.09,1014.22,1014.30,26.94,26.80,35.94,11.12,138.06,33.39,1014.22,-9,-9,1.90,13.98,355.98,2,363.51,2,-7.53,0.61,7.30,112.24,-9
AOML_Brown,RB200303,70.208,11032003,04:59:48,18.108,-64.842,371.33,377.09,1014.14,1014.16,26.94,26.80,35.94,11.36,138.29,33.38,1014.14,-9,-9,0.90,14.18,355.99,2,363.51,2,-7.52,0.62,7.50,109.80,-9
AOML_Brown,RB200303,70.211,11032003,05:04:28,18.102,-64.826,371.25,377.09,1014.09,1014.03,26.92,26.78,35.94,11.40,138.08,33.36,1014.09,-9,-9,357.20,13.88,355.83,2,363.51,2,-7.67,0.61,7.21,102.60,-9
AOML_Brown,RB200303,70.223,11032003,05:20:48,18.083,-64.768,370.96,377.13,1013.93,1013.97,26.87,26.71,35.92,11.00,140.52,33.39,1013.93,-9,-9,359.20,13.58,355.37,2,363.32,2,-7.95,0.60,7.15,106.88,-9
AOML_Brown,RB200303,70.226,11032003,05:25:28,18.078,-64.751,371.15,377.13,1013.84,1013.81,26.86,26.72,35.93,11.24,140.93,33.38,1013.84,-9,-9,355.70,13.08,355.80,2,363.32,2,-7.52,0.61,6.38,98.56,-9
AOML_Brown,RB200303,70.229,11032003,05:29:48,18.073,-64.736,371.30,377.13,1013.76,1013.67,26.87,26.72,35.93,11.15,140.39,33.39,1013.76,-9,-9,355.60,13.28,355.78,2,363.32,2,-7.54,0.61,6.69,99.23,-9
AOML_Brown,RB200303,70.232,11032003,05:34:28,18.068,-64.719,371.36,377.13,1013.71,1013.49,26.86,26.72,35.93,11.17,142.08,33.38,1013.71,-9,-9,356.60,14.08,355.91,2,363.32,2,-7.42,0.61,7.52,101.22,-9
AOML_Brown,RB200303,70.244,11032003,05:50:49,18.051,-64.661,371.06,377.13,1013.53,1013.54,26.86,26.71,35.93,11.32,136.59,33.39,1013.53,-9,-9,4.30,14.08,355.44,2,363.32,2,-7.88,0.61,7.48,115.61,-9
AOML_Brown,RB200303,70.247,11032003,05:55:29,18.046,-64.644,371.19,377.13,1013.53,1013.39,26.87,26.73,35.93,11.18,136.17,33.40,1013.53,-9,-9,1.40,12.99,355.66,2,363.32,2,-7.66,0.61,6.51,109.89,-9
AOML_Brown,RB200303,70.250,11032003,05:59:49,18.041,-64.628,371.24,377.13,1013.52,1013.52,26.86,26.73,35.93,11.06,136.82,33.40,1013.52,-9,-9,0.40,13.18,355.80,2,363.32,2,-7.52,0.61,6.54,109.51,-9
AOML_Brown,RB200303,70.253,11032003,06:04:29,18.036,-64.612,371.19,377.13,1013.35,1013.27,26.87,26.73,35.94,11.31,138.89,33.38,1013.35,-9,-9,359.10,13.98,355.56,2,363.32,2,-7.76,0.60,7.36,104.14,-9
AOML_Brown,RB200303,70.264,11032003,06:20:49,18.017,-64.554,370.27,377.08,1013.17,1013.17,26.89,26.76,35.95,11.38,140.22,33.42,1013.17,-9,-9,355.80,13.58,354.82,2,363.08,2,-8.26,0.61,6.96,104.40,-9
AOML_Brown,RB200303,70.268,11032003,06:25:29,18.012,-64.538,370.20,377.08,1013.24,1013.22,26.90,26.77,35.96,11.19,138.01,33.41,1013.24,-9,-9,354.40,11.68,354.68,2,363.08,2,-8.40,0.61,5.17,95.86,-9
AOML_Brown,RB200303,70.271,11032003,06:29:49,18.007,-64.523,369.96,377.08,1013.13,1013.14,26.91,26.77,35.96,11.19,139.03,33.41,1013.13,-9,-9,355.40,12.58,354.35,2,363.08,2,-8.73,0.61,6.09,98.37,-9
AOML_Brown,RB200303,70.274,11032003,06:34:29,18.002,-64.506,369.64,377.08,1013.10,1013.10,26.91,26.77,35.96,11.57,142.06,33.40,1013.10,-9,-9,358.60,12.99,354.01,2,363.08,2,-9.07,0.61,6.51,105.51,-9
AOML_Brown,RB200303,70.285,11032003,06:50:49,17.983,-64.449,369.58,377.08,1012.99,1012.97,26.89,26.78,35.97,11.36,134.02,33.39,1012.99,-9,-9,359.90,13.08,354.31,2,363.08,2,-8.77,0.62,6.60,108.40,-9
AOML_Brown,RB200303,70.289,11032003,06:55:29,17.978,-64.432,369.51,377.08,1012.90,1012.97,26.93,26.79,35.97,11.41,137.08,33.41,1012.90,-9,-9,356.70,12.79,353.86,2,363.08,2,-9.22,0.62,6.84,101.82,-9
AOML_Brown,RB200303,70.291,11032003,06:59:29,17.974,-64.418,369.64,377.08,1012.94,1012.95,26.90,26.76,35.97,11.46,137.52,33.40,1012.94,-9,-9,357.00,12.88,353.92,2,363.08,2,-9.16,0.61,6.22,102.27,-9
AOML_Brown,RB200303,70.295,11032003,07:04:29,17.968,-64.401,369.32,377.08,1013.01,1013.00,26.87,26.71,35.94,10.98,140.05,33.38,1013.01,-9,-9,356.80,13.08,353.50,2,363.08,2,-9.58,0.62,6.62,101.97,-9
AOML_Brown,RB200303,70.306,11032003,07:20:49,17.950,-64.343,368.12,376.94,1012.98,1012.94,26.87,26.73,35.95,11.49,138.75,33.40,1012.98,-9,-9,0.90,12.88,352.59,2,362.89,2,-10.30,0.63,6.30,109.34,-9
AOML_Brown,RB200303,70.309,11032003,07:25:29,17.945,-64.327,367.69,376.94,1013.04,1012.82,26.87,26.74,35.95,11.13,140.31,33.39,1013.04,-9,-9,358.30,13.49,352.24,2,362.89,2,-10.65,0.63,7.01,103.83,-9
AOML_Brown,RB200303,70.312,11032003,07:29:49,17.938,-64.312,367.17,376.94,1012.92,1012.78,26.86,26.74,35.96,11.16,140.02,33.39,1012.92,-9,-9,337.00,12.18,351.81,2,362.89,2,-11.08,0.61,6.64,82.40,-9
AOML_Brown,RB200303,70.316,11032003,07:34:29,17.923,-64.304,366.10,376.94,1012.94,1012.79,26.87,26.73,35.96,11.10,142.01,33.38,1012.94,-9,-9,327.70,11.39,350.56,2,362.89,2,-12.32,0.60,6.90,90.18,-9
AOML_Brown,RB200303,70.327,11032003,07:50:49,17.869,-64.280,366.14,376.94,1012.87,1012.97,26.86,26.72,35.95,11.46,135.67,33.38,1012.87,-9,-9,330.20,11.98,350.63,2,362.89,2,-12.26,0.61,7.04,91.54,-9
AOML_Brown,RB200303,70.330,11032003,07:55:29,17.854,-64.273,366.68,376.94,1012.96,1012.81,26.87,26.71,35.95,11.25,138.27,33.39,1012.96,-9,-9,329.50,11.68,350.95,2,362.89,2,-11.93,0.62,6.88,94.42,-9
AOML_Brown,RB200303,70.333,11032003,07:59:49,17.840,-64.266,367.04,376.94,1013.05,1012.99,26.86,26.72,35.95,10.82,139.63,33.37,1013.05,-9,-9,318.10,11.59,351.50,2,362.89,2,-11.39,0.62,7.95,76.52,-9
AOML_Brown,RB200303,70.336,11032003,08:04:29,17.825,-64.258,367.30,376.94,1013.02,1013.09,26.86,26.72,35.95,11.13,137.46,33.37,1013.02,-9,-9,325.80,10.28,351.83,2,362.89,2,-11.05,0.63,6.03,80.62,-9
AOML_Brown,RB200303,70.348,11032003,08:20:49,17.771,-64.234,366.87,377.08,1013.06,1013.03,26.86,26.71,35.94,11.24,138.39,33.38,1013.06,-9,-9,329.40,11.59,351.31,2,363.11,2,-11.81,0.62,6.78,93.69,-9
AOML_Brown,RB200303,70.351,11032003,08:25:29,17.755,-64.227,366.98,377.08,1013.13,1013.02,26.85,26.70,35.94,11.17,140.64,33.38,1013.13,-9,-9,331.00,11.29,351.43,2,363.11,2,-11.68,0.64,6.36,93.99,-9
AOML_Brown,RB200303,70.354,11032003,08:29:49,17.741,-64.220,366.85,377.08,1013.03,1013.02,26.84,26.70,35.93,11.47,140.60,33.39,1013.03,-9,-9,330.40,12.29,351.42,2,363.11,2,-11.70,0.62,7.18,94.62,-9
AOML_Brown,RB200303,70.357,11032003,08:34:29,17.726,-64.213,366.81,377.08,1013.17,1013.00,26.83,26.70,35.93,10.98,142.05,33.37,1013.17,-9,-9,338.60,12.68,351.45,2,363.11,2,-11.66,0.63,6.83,110.21,-9
AOML_Brown,RB200303,70.369,11032003,08:50:49,17.671,-64.187,366.08,377.08,1013.10,1013.08,26.83,26.69,35.93,11.33,135.89,33.38,1013.10,-9,-9,332.30,11.98,350.64,2,363.11,2,-12.47,0.64,6.78,97.59,-9
AOML_Brown,RB200303,70.372,11032003,08:55:29,17.656,-64.180,366.12,377.08,1013.13,1013.21,26.83,26.70,35.93,11.10,138.27,33.38,1013.13,-9,-9,328.60,11.98,350.79,2,363.11,2,-12.32,0.63,7.20,93.31,-9
AOML_Brown,RB200303,70.375,11032003,08:59:49,17.641,-64.173,366.23,377.08,1013.07,1013.14,26.83,26.70,35.93,11.31,137.55,33.36,1013.07,-9,-9,335.50,12.09,350.85,2,363.11,2,-12.26,0.64,6.51,102.46,-9
AOML_Brown,RB200303,70.378,11032003,09:04:29,17.626,-64.166,366.27,377.08,1013.01,1012.99,26.84,26.70,35.93,11.35,138.45,33.36,1013.01,-9,-9,334.10,12.09,350.80,2,363.11,2,-12.31,0.64,6.83,99.67,-9
AOML_Brown,RB200303,70.389,11032003,09:20:49,17.572,-64.141,365.63,377.52,1013.14,1013.03,26.84,26.71,35.94,11.29,139.03,33.36,1013.14,-9,-9,328.40,12.09,350.38,2,363.62,2,-13.25,0.64,7.49,92.50,-9
AOML_Brown,RB200303,70.393,11032003,09:25:29,17.556,-64.134,365.76,377.52,1013.09,1013.10,26.85,26.71,35.94,11.28,138.93,33.37,1013.09,-9,-9,333.60,11.79,350.32,2,363.62,2,-13.30,0.63,6.61,102.52,-9
AOML_Brown,RB200303,70.396,11032003,09:29:49,17.542,-64.128,365.82,377.52,1013.22,1013.12,26.86,26.73,35.94,11.26,140.55,33.37,1013.22,-9,-9,332.70,11.09,350.57,2,363.62,2,-13.05,0.64,5.96,95.17,-9
AOML_Brown,RB200303,70.399,11032003,09:34:29,17.527,-64.121,365.76,377.52,1013.25,1013.07,26.86,26.72,35.95,11.20,141.68,33.34,1013.25,-9,-9,328.30,11.59,350.40,2,363.62,2,-13.22,0.64,6.86,90.60,-9
AOML_Brown,RB200303,70.410,11032003,09:50:49,17.473,-64.096,364.67,377.52,1013.42,1013.41,26.86,26.72,35.95,11.08,131.57,33.37,1013.42,-9,-9,329.60,11.98,349.37,2,363.62,2,-14.25,0.62,7.05,94.66,-9
AOML_Brown,RB200303,70.414,11032003,09:55:29,17.458,-64.088,364.67,377.52,1013.55,1013.38,26.86,26.72,35.95,10.99,136.84,33.36,1013.55,-9,-9,331.80,12.18,349.49,2,363.62,2,-14.14,0.62,7.16,100.06,-9
AOML_Brown,RB200303,70.417,11032003,09:59:49,17.444,-64.082,364.54,377.52,1013.57,1013.44,26.85,26.72,35.95,10.91,138.33,33.35,1013.57,-9,-9,330.00,12.49,349.40,2,363.62,2,-14.23,0.62,7.48,96.96,-9
AOML_Brown,RB200303,70.420,11032003,10:04:29,17.428,-64.075,364.45,377.52,1013.54,1013.48,26.85,26.70,35.95,11.25,140.19,33.35,1013.54,-9,-9,335.40,12.88,349.13,2,363.62,2,-14.49,0.62,7.46,108.90,-9
AOML_Brown,RB200303,70.431,11032003,10:20:49,17.374,-64.050,363.72,376.99,1013.71,1013.63,26.82,26.67,35.94,11.18,139.09,33.35,1013.71,-9,-9,335.80,12.79,348.44,2,363.38,2,-14.94,0.61,7.30,106.78,-9
AOML_Brown,RB200303,70.434,11032003,10:25:29,17.359,-64.043,363.66,376.99,1013.78,1013.74,26.81,26.66,35.94,11.32,140.94,33.36,1013.78,-9,-9,332.80,12.88,348.41,2,363.38,2,-14.97,0.61,7.77,98.94,-9
AOML_Brown,RB200303,70.437,11032003,10:29:49,17.344,-64.036,363.55,376.99,1013.76,1013.96,26.81,26.67,35.93,11.18,141.76,33.35,1013.76,-9,-9,332.30,13.08,348.52,2,363.38,2,-14.86,0.61,7.84,103.23,-9
AOML_Brown,RB200303,70.441,11032003,10:34:29,17.329,-64.029,363.59,376.99,1013.84,1013.90,26.81,26.66,35.93,11.50,142.41,33.34,1013.84,-9,-9,332.60,11.98,348.44,2,363.38,2,-14.95,0.61,7.01,95.06,-9
AOML_Brown,RB200303,70.452,11032003,10:50:49,17.275,-64.004,363.85,376.99,1014.21,1014.08,26.81,26.68,35.92,11.26,137.29,33.37,1014.21,-9,-9,336.00,12.88,349.07,2,363.38,2,-14.31,0.61,7.43,107.30,-9
AOML_Brown,RB200303,70.455,11032003,10:55:29,17.259,-63.996,364.55,376.99,1014.20,1014.10,26.81,26.68,35.93,11.24,135.95,33.37,1014.20,-9,-9,331.80,12.58,349.69,2,363.38,2,-13.70,0.62,7.37,98.99,-9
AOML_Brown,RB200303,70.458,11032003,10:59:49,17.245,-63.990,365.56,376.99,1014.28,1014.16,26.82,26.68,35.92,11.52,137.61,33.37,1014.28,-9,-9,332.70,13.49,350.55,2,363.38,2,-12.84,0.63,8.31,106.41,-9
AOML_Brown,RB200303,70.461,11032003,11:04:29,17.229,-63.983,366.22,376.99,1014.35,1014.22,26.81,26.67,35.93,11.34,139.01,33.36,1014.35,-9,-9,335.80,12.29,351.19,2,363.38,2,-12.19,0.64,6.73,105.37,-9
AOML_Brown,RB200303,70.473,11032003,11:21:09,17.174,-63.957,368.44,377.05,1014.46,1014.37,26.82,26.68,35.92,11.38,139.55,33.31,1014.46,-9,-9,330.50,13.18,353.47,2,363.68,2,-10.22,0.65,7.91,98.69,-9
AOML_Brown,RB200303,70.476,11032003,11:25:29,17.159,-63.950,368.76,377.05,1014.55,1014.45,26.82,26.68,35.92,10.93,139.56,33.31,1014.55,-9,-9,330.10,12.79,353.73,2,363.68,2,-9.95,0.65,7.83,100.52,-9
AOML_Brown,RB200303,70.479,11032003,11:29:49,17.145,-63.944,368.93,377.05,1014.55,1014.31,26.82,26.68,35.92,11.40,142.68,33.30,1014.55,-9,-9,333.30,13.08,353.91,2,363.68,2,-9.78,0.65,7.82,106.34,-9
AOML_Brown,RB200303,70.482,11032003,11:34:29,17.129,-63.936,368.87,377.05,1014.84,1014.43,26.81,26.67,35.93,11.40,140.77,33.29,1014.84,-9,-9,337.80,13.28,353.92,2,363.68,2,-9.77,0.66,7.41,111.39,-9
AOML_Brown,RB200303,70.494,11032003,11:50:49,17.075,-63.911,368.36,377.05,1014.84,1014.74,26.81,26.68,35.91,11.03,138.10,33.31,1014.84,-9,-9,331.00,12.68,353.55,2,363.68,2,-10.13,0.62,7.39,98.96,-9
AOML_Brown,RB200303,70.497,11032003,11:55:29,17.059,-63.904,368.38,377.05,1014.86,1014.57,26.82,26.68,35.92,11.17,139.01,33.31,1014.86,-9,-9,337.00,12.88,353.49,2,363.68,2,-10.20,0.62,7.07,112.21,-9
AOML_Brown,RB200303,70.500,11032003,11:59:49,17.044,-63.898,368.21,377.05,1015.12,1014.73,26.81,26.67,35.92,11.09,138.49,33.29,1015.12,-9,-9,338.00,11.59,353.39,2,363.68,2,-10.29,0.63,6.01,109.17,-9
AOML_Brown,RB200303,70.503,11032003,12:04:29,17.029,-63.891,367.73,377.05,1014.83,1014.82,26.83,26.69,35.91,11.35,139.51,33.29,1014.83,-9,-9,332.50,12.58,352.88,2,363.68,2,-10.80,0.62,7.16,102.89,-9
AOML_Brown,RB200303,70.515,11032003,12:21:09,16.974,-63.865,365.75,376.89,1015.35,1014.95,26.84,26.70,35.86,11.15,141.58,33.29,1015.35,-9,-9,335.20,13.68,351.18,2,363.68,2,-12.50,0.60,7.84,115.80,-9
AOML_Brown,RB200303,70.518,11032003,12:25:29,16.959,-63.858,365.58,376.89,1015.10,1015.07,26.84,26.69,35.86,11.35,141.20,33.29,1015.10,-9,-9,332.70,12.49,350.76,2,363.68,2,-12.92,0.61,7.17,103.53,-9
AOML_Brown,RB200303,70.521,11032003,12:29:49,16.945,-63.852,365.32,376.89,1015.15,1015.13,26.82,26.68,35.86,11.36,143.10,33.29,1015.15,-9,-9,335.20,12.79,350.61,2,363.68,2,-13.07,0.61,7.14,107.10,-9
AOML_Brown,RB200303,70.524,11032003,12:34:29,16.929,-63.845,365.09,376.89,1015.11,1015.21,26.82,26.68,35.85,11.30,141.46,33.26,1015.11,-9,-9,333.30,12.49,350.41,2,363.68,2,-13.27,0.62,7.07,101.55,-9
AOML_Brown,RB200303,70.535,11032003,12:50:49,16.875,-63.819,364.58,376.89,1015.10,1015.34,26.84,26.71,35.86,11.21,138.33,33.27,1015.10,-9,-9,337.30,13.88,350.05,2,363.68,2,-13.63,0.63,8.32,113.86,-9
AOML_Brown,RB200303,70.539,11032003,12:55:29,16.859,-63.812,365.09,376.89,1015.23,1015.33,26.85,26.71,35.87,11.30,138.81,33.28,1015.23,-9,-9,331.10,13.08,350.39,2,363.68,2,-13.29,0.62,7.86,100.61,-9
AOML_Brown,RB200303,70.542,11032003,12:59:49,16.845,-63.805,365.26,376.89,1015.32,1015.40,26.84,26.70,35.83,11.24,138.08,33.27,1015.32,-9,-9,329.50,12.38,350.66,2,363.68,2,-13.02,0.62,7.44,97.76,-9
AOML_Brown,RB200303,70.545,11032003,13:04:29,16.830,-63.798,365.28,376.89,1015.24,1015.50,26.85,26.70,35.88,11.45,140.23,33.26,1015.24,-9,-9,327.10,13.18,350.55,2,363.68,2,-13.12,0.62,8.42,98.15,-9
AOML_Brown,RB200303,70.556,11032003,13:21:09,16.775,-63.771,365.03,377.08,1015.53,1015.70,26.84,26.69,35.85,11.31,139.59,33.26,1015.53,-9,-9,337.40,13.18,350.38,2,364.17,2,-13.78,0.61,7.61,113.61,-9
AOML_Brown,RB200303,70.559,11032003,13:25:29,16.761,-63.765,365.05,377.08,1015.53,1015.84,26.82,26.68,35.81,11.22,141.70,33.25,1015.53,-9,-9,325.00,11.48,350.49,2,364.17,2,-13.67,0.61,7.08,91.34,-9
AOML_Brown,RB200303,70.562,11032003,13:29:49,16.746,-63.758,364.84,377.08,1015.63,1015.76,26.82,26.67,35.85,11.22,142.67,33.22,1015.63,-9,-9,330.10,11.88,350.31,2,364.17,2,-13.86,0.61,6.94,97.59,-9
AOML_Brown,RB200303,70.566,11032003,13:34:29,16.731,-63.751,364.60,377.08,1015.97,1015.66,26.81,26.66,35.80,11.30,142.03,33.22,1015.97,-9,-9,327.60,11.98,350.17,2,364.17,2,-14.00,0.62,7.39,92.14,-9
AOML_Brown,RB200303,70.577,11032003,13:50:49,16.675,-63.727,364.37,377.08,1015.91,1015.72,26.83,26.69,35.85,11.06,132.96,33.23,1015.91,-9,-9,330.00,10.98,350.01,2,364.17,2,-14.16,0.61,6.33,90.21,-9
AOML_Brown,RB200303,70.580,11032003,13:55:29,16.659,-63.719,364.90,377.08,1015.80,1015.89,26.82,26.69,35.82,11.26,137.91,33.23,1015.80,-9,-9,332.30,11.29,350.57,2,364.17,2,-13.59,0.60,6.17,97.11,-9